Shannon, Ireland

4:04 AM IST on May 22, 2018 (GMT +0100)
Shannon

Weather History for EINN - June, 2013

Change the Weather History Date:

Wednesday, June 5, 2013

  Actual Average Record
Temperature  
Mean Temperature 58 °F -  
Max Temperature 73 °F 64 °F 77 °F (2006)
Min Temperature 44 °F 51 °F 38 °F (2014)
Degree Days  
Heating Degree Days 6    
Growing Degree Days 8 (Base 50)    
Moisture  
Dew Point 48 °F    
Average Humidity 66    
Maximum Humidity 93    
Minimum Humidity 37    
Precipitation  
Precipitation 0.00 in 0.08 in - ()
Sea Level Pressure  
Sea Level Pressure 30.14 in    
Wind  
Wind Speed 5 mph ()    
Max Wind Speed 16 mph    
Max Gust Speed -    
Visibility 7.1 miles    
Events      
Averages and records for this station are not official NWS values.
T = Trace of Precipitation, MM = Missing Value Source: Averaged Metar Reports

Daily Weather History Graph

Daily Weather History Graph

Search for Another Location

Airport or City:

Astronomy

Jun. 05, 2013 Rise Set
Actual Time 5:14 AM IST 9:54 PM IST
Civil Twilight 4:25 AM IST 10:43 PM IST
Nautical Twilight 3:08 AM IST 12:01 AM IST
Astronomical Twilight 2:06 AM IST Sun does not set
Moon 3:34 AM IST (6/5) 6:49 PM IST (6/5)
Length of Visible Light 18h 17m
Length of Day
16h 39m
Waning Crescent, 9% of the Moon is Illuminated
Jun 5
Waning Crescent
Jun 8
New
Jun 16
First Quarter
Jun 23
Full
Jun 30
Last Quarter

Hourly Weather History & Observations

Time (IST) Temp. Dew Point Humidity Pressure Visibility Wind Dir Wind Speed Gust Speed Precip Events Conditions
12:00 AM 51.8 °F 42.8 °F 71% 30.24 in - NNE 2.3 mph - N/A   Clear
12:30 AM 50.0 °F 42.8 °F 76% 30.24 in - Calm Calm - N/A   Clear
1:00 AM 50 °F 42 °F 67% 30.25 in 19 mi North 2.2 mph - -  
1:00 AM 50.0 °F 42.8 °F 76% 30.24 in - North 2.3 mph - N/A   Clear
1:30 AM 50.0 °F 42.8 °F 76% 30.21 in - NNE 2.3 mph - N/A   Clear
2:00 AM 50.0 °F 41.0 °F 71% 30.21 in - NE 4.6 mph - N/A   Clear
2:30 AM 50.0 °F 41.0 °F 71% 30.21 in - NNE 3.5 mph - N/A   Clear
3:00 AM 48.2 °F 41.0 °F 76% 30.21 in - North 1.2 mph - N/A   Clear
3:30 AM 46.4 °F 41.0 °F 81% 30.21 in - North 2.3 mph - N/A   Clear
4:00 AM 46.4 °F 42.8 °F 87% 30.18 in - North 2.3 mph - N/A   Clear
4:30 AM 44.6 °F 41.0 °F 87% 30.18 in - North 2.3 mph - N/A   Clear
5:00 AM 44.6 °F 41.0 °F 87% 30.18 in - NNE 1.2 mph - N/A   Clear
5:30 AM 44.6 °F 41.0 °F 87% 30.18 in - North 2.3 mph - N/A   Clear
6:00 AM 44.6 °F 42.8 °F 93% 30.18 in - North 2.3 mph - N/A   Clear
6:30 AM 48.2 °F 44.6 °F 87% 30.18 in - NNE 3.5 mph - N/A   Clear
7:00 AM 49 °F 45 °F 81% 30.19 in 19 mi NNW 2.2 mph - -   Scattered Clouds
7:00 AM 48.2 °F 44.6 °F 87% 30.18 in - NNW 2.3 mph - N/A   Clear
7:30 AM 51.8 °F 46.4 °F 82% 30.18 in - Calm Calm - N/A   Clear
8:00 AM 53.6 °F 46.4 °F 77% 30.18 in - SE 3.5 mph - N/A   Clear
8:30 AM 55.4 °F 46.4 °F 72% 30.18 in 6.2 mi ESE 3.5 mph - N/A   Partly Cloudy
9:00 AM 55.4 °F 46.4 °F 72% 30.18 in - East 5.8 mph - N/A   Clear
9:30 AM 59.0 °F 48.2 °F 67% 30.15 in - ESE 9.2 mph - N/A   Clear
10:00 AM 60.8 °F 48.2 °F 63% 30.15 in - East 6.9 mph - N/A   Clear
10:30 AM 62.6 °F 48.2 °F 59% 30.15 in 6.2 mi ESE 6.9 mph - N/A   Partly Cloudy
11:00 AM 64.4 °F 50.0 °F 59% 30.15 in 6.2 mi East 8.1 mph - N/A   Partly Cloudy
11:30 AM 64.4 °F 50.0 °F 59% 30.12 in 6.2 mi ESE 6.9 mph - N/A   Partly Cloudy
12:00 PM 66.2 °F 50.0 °F 56% 30.12 in 6.2 mi ESE 9.2 mph - N/A   Partly Cloudy
12:30 PM 68.0 °F 48.2 °F 49% 30.12 in 6.2 mi East 13.8 mph - N/A   Partly Cloudy
1:00 PM 69 °F 49 °F 37% 30.13 in 31 mi ESE 15.7 mph - -   Partly Cloudy
1:00 PM 69.8 °F 48.2 °F 46% 30.12 in 6.2 mi ESE 15.0 mph - N/A   Scattered Clouds
1:30 PM 69.8 °F 50.0 °F 49% 30.12 in 6.2 mi ESE 12.7 mph - N/A   Partly Cloudy
2:00 PM 69.8 °F 50.0 °F 49% 30.09 in 6.2 mi ESE 12.7 mph - N/A   Scattered Clouds
2:30 PM 69.8 °F 48.2 °F 46% 30.09 in 6.2 mi ESE 13.8 mph - N/A   Scattered Clouds
3:00 PM 69.8 °F 50.0 °F 49% 30.09 in 6.2 mi ESE 11.5 mph - N/A   Scattered Clouds
3:30 PM 71.6 °F 51.8 °F 50% 30.09 in 6.2 mi ESE 13.8 mph - N/A   Partly Cloudy
4:00 PM 71.6 °F 53.6 °F 53% 30.09 in 6.2 mi ESE 12.7 mph - N/A   Scattered Clouds
4:30 PM 71.6 °F 51.8 °F 50% 30.09 in 6.2 mi ESE 10.4 mph - N/A   Scattered Clouds
5:00 PM 73.4 °F 51.8 °F 47% 30.06 in 6.2 mi ESE 10.4 mph - N/A   Scattered Clouds
5:30 PM 73.4 °F 51.8 °F 47% 30.06 in 6.2 mi ESE 10.4 mph - N/A   Scattered Clouds
6:00 PM 71.6 °F 51.8 °F 50% 30.06 in 6.2 mi ESE 8.1 mph - N/A   Scattered Clouds
6:30 PM 71.6 °F 51.8 °F 50% 30.06 in 6.2 mi SE 8.1 mph - N/A   Scattered Clouds
7:00 PM 71 °F 51 °F 39% 30.07 in 25 mi SE 8.9 mph - -   Mostly Cloudy
7:00 PM 71.6 °F 51.8 °F 50% 30.06 in 6.2 mi SE 8.1 mph - N/A   Scattered Clouds
7:30 PM 68.0 °F 51.8 °F 56% 30.06 in 6.2 mi SE 9.2 mph - N/A   Scattered Clouds
8:00 PM 66.2 °F 55.4 °F 68% 30.06 in 6.2 mi South 11.5 mph - N/A   Mostly Cloudy
8:30 PM 64.4 °F 55.4 °F 73% 30.09 in 6.2 mi SSE 10.4 mph - N/A   Mostly Cloudy
9:00 PM 62.6 °F 53.6 °F 72% 30.09 in 6.2 mi SSE 8.1 mph - N/A   Mostly Cloudy
9:30 PM 62.6 °F 53.6 °F 72% 30.09 in 6.2 mi SSE 9.2 mph - N/A   Mostly Cloudy
10:00 PM 60.8 °F 53.6 °F 77% 30.12 in 6.2 mi South 6.9 mph - N/A   Mostly Cloudy
10:30 PM 60.8 °F 51.8 °F 72% 30.12 in 6.2 mi South 6.9 mph - N/A   Mostly Cloudy
11:00 PM 59.0 °F 51.8 °F 77% 30.12 in 6.2 mi South 4.6 mph - N/A   Mostly Cloudy
11:30 PM 57.2 °F 51.8 °F 82% 30.12 in 6.2 mi SSW 4.6 mph - N/A   Mostly Cloudy